Skip to main content

Terceira / Serra do Cume (DROTRH)

ID 11217372 · 38.7002, -27.1031 map

Latest reading · 2026-05-09 19:00 (Europe/Lisbon)

Temperature
11.5 °C
Humidity
99 %
Pressure
Precipitation
0.0 mm
Radiation
993 W/m²
Wind speed
29.5 km/h
Wind direction
NE · North-east

24-hour history

Time (Europe/Lisbon) Temp Humidity Pressure Rain Wind Dir
2026-05-09 19:00 11.5 °C 99 % 0.0 mm 29.5 km/h NE
2026-05-09 18:00 11.1 °C 99 % 0.0 mm 28.4 km/h NE
2026-05-09 17:00 11.6 °C 99 % 0.4 mm 34.2 km/h NE
2026-05-09 16:00 12.1 °C 99 % 0.0 mm 31.7 km/h NE
2026-05-09 15:00 11.6 °C 100 % 0.0 mm 29.9 km/h NE
2026-05-09 14:00 10.2 °C 100 % 0.6 mm 34.9 km/h E
2026-05-09 13:00 11.0 °C 95 % 0.1 mm 34.2 km/h E
2026-05-09 12:00 10.1 °C 91 % 0.0 mm 29.5 km/h SE
2026-05-09 11:00 9.9 °C 81 % 0.0 mm 31.7 km/h SE
2026-05-09 10:00 9.2 °C 77 % 0.0 mm 23.0 km/h NE
2026-05-09 09:00 8.1 °C 79 % 0.0 mm 24.1 km/h N
2026-05-09 08:00 7.8 °C 95 % 0.2 mm 24.1 km/h E
2026-05-09 07:00 8.1 °C 93 % 0.0 mm 16.9 km/h SE
2026-05-09 06:00 8.2 °C 93 % 0.0 mm 17.6 km/h N
2026-05-09 05:00 8.4 °C 98 % 0.0 mm 12.6 km/h NE
2026-05-09 04:00 8.5 °C 97 % 0.0 mm 21.2 km/h NE
2026-05-09 03:00 8.3 °C 88 % 0.0 mm 18.7 km/h E
2026-05-09 02:00 8.7 °C 86 % 0.0 mm 19.4 km/h NE
2026-05-09 01:00 9.4 °C 95 % 0.0 mm 16.9 km/h NE
2026-05-09 00:00 9.7 °C 98 % 0.0 mm 24.8 km/h NE
2026-05-08 23:00 9.8 °C 99 % 0.0 mm 19.8 km/h NE
2026-05-08 22:00 10.0 °C 100 % 0.0 mm 16.9 km/h E
2026-05-08 21:00 10.5 °C 100 % 0.0 mm 20.2 km/h NE
2026-05-08 20:00 11.0 °C 100 % 0.1 mm 21.2 km/h N